Tracking 22993 objects as of 11-May-2021
HD Live streaming from Space Station
objects crossing your sky now

SL-8 R/B

Track SL-8 R/B now!
10-day predictions


NORAD ID: 12088
Int'l Code: 1980-097B
Perigee: 945.0 km
Apogee: 1,018.3 km
Inclination: 82.9 °
Period: 104.6 minutes
Semi major axis: 7352 km
RCS: 4.7296 m2 (large)
Launch date: December 5, 1980
Source: Commonwealth of Independent States (former USSR) (CIS)
Launch site: PLESETSK MISSILE AND SPACE COMPLEX (PKMTR)

Note: This is a ROCKET BODY
aabbcc
Your satellite tracking list
Your tracking list is empty




NASA's NSSDC Master Catalog

Two Line Element Set (TLE):
1 12088U 80097B   21130.94727609  .00000080  00000-0  64317-4 0  9997
2 12088  82.9442   4.1173 0049863  43.0417 317.4623 13.77017980 30940
Source of the keplerian elements: AFSPC